Flag for Brazil Weather past 2 weeks in Salvador, Bahia, Brazil

Now
82 °F

Sunny.


Feels Like: 87 °F
Forecast: 72 / 84 °F
Wind: 17 mph from East

Location: Salvador Aeroporto

Current Time: Sep 5, 2015 at 1:47:17 PM

Latest Report: Sep 5, 2015 at 1:00 PM


Visibility: 10 mi

Pressure: 29.92 "Hg

Humidity: 70%

Dew point: 72 °F

Location of SalvadorLocation

Historic Weather in Salvador — Graph

°F

Salvador temperature yesterday

Maximum temperature yesterday: 82 °F (at 9:00 AM)
Minimum temperature yesterday: 66 °F (at 4:00 AM)
Average temperature yesterday: 76 °F

Past Weeks' High & Low Weather Summary

 TemperatureHumidityPressure
High86 °F (Sep 5, 11:00 AM)100% (Aug 25, 8:00 AM)30.15 "Hg (Aug 25, 8:00 AM)
Low66 °F (Aug 25, 5:00 AM)54% (Sep 3, 3:00 PM)29.95 "Hg (Aug 22, 3:00 PM)
Average77 °F73%30.03 "Hg
* Reported Aug 21 12:00 Noon — Sep 5 12:00 Noon, Salvador, Weather by CustomWeather, © 2015

Note: Actual official high and low records may vary slightly from our data, if they occured in-between our weather recording intervals... More about our weather records

Advertising

Salvador weather history for previous 24 hours

 ConditionsComfort  
Time TempWeatherWind HumidityBarometerVisibility
12:00 PM
Sat, Sep 5
86 °FPassing clouds.12 mph66%29.95 "HgN/A
11:00 AM86 °FScattered clouds.7 mph59%29.98 "HgN/A
10:00 AM82 °FScattered clouds.7 mph66%30.01 "HgN/A
9:00 AM81 °FScattered clouds.9 mph70%30.01 "HgN/A
8:00 AM77 °FSunny.9 mph79%29.98 "Hg10 mi
7:00 AM73 °FPassing clouds.7 mph89%29.98 "HgN/A
6:00 AM70 °FPassing clouds.3 mph94%29.98 "HgN/A
5:00 AM70 °FPassing clouds.2 mph94%29.98 "HgN/A
4:00 AM72 °FPassing clouds.3 mph88%29.95 "HgN/A
3:00 AM72 °FPassing clouds.3 mph88%29.95 "HgN/A
2:00 AM72 °FPassing clouds.3 mph88%29.98 "HgN/A
1:00 AM73 °FPassing clouds.3 mph83%30.01 "HgN/A
12:00 AM75 °FPassing clouds.8 mph78%30.04 "HgN/A
11:00 PM
Fri, Sep 4
75 °FPassing clouds.8 mph83%30.04 "HgN/A
10:00 PM75 °FPassing clouds.9 mph83%30.04 "HgN/A
9:00 PM75 °FPassing clouds.9 mph83%30.01 "HgN/A
8:00 PM75 °FPassing clouds.9 mph78%29.98 "HgN/A
7:00 PM75 °FPassing clouds.8 mph78%29.98 "HgN/A
6:00 PM75 °FClear.10 mph78%29.98 "Hg10 mi
5:00 PM77 °FSunny.12 mph74%29.98 "Hg10 mi
4:00 PM79 °FSunny.12 mph70%29.95 "Hg10 mi
3:00 PM81 °FSunny.9 mph66%29.95 "Hg10 mi
2:00 PM82 °FPassing clouds.10 mph66%29.98 "HgN/A
1:00 PM81 °FPassing clouds.9 mph66%29.98 "HgN/A
Weather by CustomWeather, © 2015

See weather overviewHow to use our weather pages